Time,TemperatureF,DewpointF,PressureIn,WindDirection,WindDirectionDegrees,WindSpeedMPH,WindSpeedGustMPH,Humidity,HourlyPrecipIn,Conditions,Clouds,dailyrainin,SoftwareType,DateUTC
2013-06-10 00:03:00,61.2,57.6,29.83,South,175,4.6,4.6,88,0.00,RA,,0.00,WeatherDisplay:10.37,2013-06-10 05:03:00,
2013-06-10 00:08:00,61.2,57.9,29.83,SSE,166,4.6,4.6,89,0.00,RA,,0.00,WeatherDisplay:10.37,2013-06-10 05:08:00,
2013-06-10 00:13:00,61.2,57.9,29.83,South,169,3.5,0.0,89,0.00,,,0.00,WeatherDisplay:10.37,2013-06-10 05:13:00,
2013-06-10 00:18:00,61.0,57.7,29.83,South,170,3.5,3.5,89,0.00,,,0.00,WeatherDisplay:10.37,2013-06-10 05:18:00,
2013-06-10 00:23:00,60.8,57.5,29.83,South,170,3.5,3.5,89,0.00,,,0.00,WeatherDisplay:10.37,2013-06-10 05:23:00,
2013-06-10 00:28:00,61.3,59.0,29.83,SSE,155,4.6,4.6,92,0.00,,,0.00,WeatherDisplay:10.37,2013-06-10 05:28:00,
2013-06-10 00:33:00,61.5,59.2,29.83,SSE,158,4.6,4.6,92,0.00,,,0.00,WeatherDisplay:10.37,2013-06-10 05:33:00,
2013-06-10 00:38:00,61.5,59.5,29.83,SSE,166,4.6,4.6,93,0.00,,,0.00,WeatherDisplay:10.37,2013-06-10 05:38:00,
2013-06-10 00:43:00,61.7,59.7,29.83,SSE,163,4.6,4.6,93,0.00,,,0.00,WeatherDisplay:10.37,2013-06-10 05:43:00,
2013-06-10 00:48:00,61.9,60.1,29.83,South,169,4.6,4.6,94,0.00,,,0.00,WeatherDisplay:10.37,2013-06-10 05:48:00,
2013-06-10 00:53:00,61.9,60.1,29.83,SSW,193,4.6,4.6,94,0.00,,,0.00,WeatherDisplay:10.37,2013-06-10 05:53:00,
2013-06-10 00:58:00,61.7,59.7,29.83,SSW,192,0.0,0.0,93,0.00,,,0.00,WeatherDisplay:10.37,2013-06-10 05:58:00,
2013-06-10 01:03:00,61.9,60.1,29.83,South,171,3.5,3.5,94,0.00,,,0.00,WeatherDisplay:10.37,2013-06-10 06:03:00,
2013-06-10 01:08:00,61.9,60.1,29.83,SSE,163,4.6,4.6,94,0.00,,,0.00,WeatherDisplay:10.37,2013-06-10 06:08:00,
2013-06-10 01:13:00,61.9,59.8,29.83,South,180,2.7,0.0,93,0.00,,,0.00,WeatherDisplay:10.37,2013-06-10 06:13:00,
2013-06-10 01:18:00,61.9,59.8,29.83,SSE,148,2.3,0.0,93,0.00,,,0.00,WeatherDisplay:10.37,2013-06-10 06:18:00,
2013-06-10 01:23:00,61.7,59.7,29.83,SSE,162,3.5,0.0,93,0.00,,,0.00,WeatherDisplay:10.37,2013-06-10 06:23:00,
2013-06-10 01:28:00,61.7,59.7,29.83,SSE,155,0.0,0.0,93,0.00,,,0.00,WeatherDisplay:10.37,2013-06-10 06:28:00,
2013-06-10 01:33:00,61.9,59.8,29.83,SSE,168,5.8,5.8,93,0.00,,,0.00,WeatherDisplay:10.37,2013-06-10 06:33:00,
2013-06-10 01:38:00,61.9,59.8,29.83,SSE,168,3.5,0.0,93,0.00,,,0.00,WeatherDisplay:10.37,2013-06-10 06:38:00,
2013-06-10 01:43:00,61.9,59.8,29.83,SSE,161,3.5,3.5,93,0.00,,,0.00,WeatherDisplay:10.37,2013-06-10 06:43:00,
2013-06-10 01:48:00,61.9,59.8,29.83,SSE,161,2.3,0.0,93,0.00,,,0.00,WeatherDisplay:10.37,2013-06-10 06:48:00,
2013-06-10 01:53:00,62.1,60.0,29.83,SSE,167,0.0,0.0,93,0.00,,,0.00,WeatherDisplay:10.37,2013-06-10 06:53:00,
2013-06-10 01:58:00,61.9,59.8,29.83,SSE,167,0.0,0.0,93,0.00,,,0.00,WeatherDisplay:10.37,2013-06-10 06:58:00,
2013-06-10 02:03:00,61.9,59.8,29.83,SSE,167,0.0,0.0,93,0.00,,,0.00,WeatherDisplay:10.37,2013-06-10 07:03:00,
2013-06-10 02:08:00,61.9,59.8,29.83,West,260,0.0,0.0,93,0.00,,,0.00,WeatherDisplay:10.37,2013-06-10 07:08:00,
2013-06-10 02:13:00,61.9,59.8,29.83,WSW,256,0.0,0.0,93,0.00,,,0.00,WeatherDisplay:10.37,2013-06-10 07:13:00,
2013-06-10 02:18:00,62.1,60.0,29.83,SW,236,0.0,0.0,93,0.00,,,0.00,WeatherDisplay:10.37,2013-06-10 07:18:00,
2013-06-10 02:23:00,62.2,60.2,29.83,SSE,154,3.5,3.5,93,0.00,,,0.04,WeatherDisplay:10.37,2013-06-10 07:23:00,
2013-06-10 02:28:00,62.4,60.7,29.83,SSE,155,2.3,0.0,94,0.04,RA,,0.04,WeatherDisplay:10.37,2013-06-10 07:28:00,
2013-06-10 02:33:00,62.4,60.7,29.83,SSE,155,0.0,0.0,94,0.04,RA,,0.04,WeatherDisplay:10.37,2013-06-10 07:33:00,
2013-06-10 02:38:00,62.4,60.7,29.83,SSE,155,0.0,0.0,94,0.04,,,0.04,WeatherDisplay:10.37,2013-06-10 07:38:00,
2013-06-10 02:43:00,62.4,60.7,29.83,South,180,3.6,0.0,94,0.04,,,0.04,WeatherDisplay:10.37,2013-06-10 07:43:00,
2013-06-10 02:48:00,62.4,60.7,29.83,SE,140,3.5,3.5,94,0.04,,,0.04,WeatherDisplay:10.37,2013-06-10 07:48:00,
2013-06-10 02:53:00,62.4,61.0,29.80,SSE,164,4.1,4.1,95,0.04,,,0.04,WeatherDisplay:10.37,2013-06-10 07:53:00,
2013-06-10 02:58:00,62.4,61.0,29.80,SSE,164,5.8,5.8,95,0.04,,,0.04,WeatherDisplay:10.37,2013-06-10 07:58:00,
2013-06-10 03:03:00,62.4,61.3,29.80,South,171,3.5,3.5,96,0.04,,,0.04,WeatherDisplay:10.37,2013-06-10 08:03:00,
2013-06-10 03:08:00,62.4,61.3,29.80,South,180,4.6,0.0,96,0.04,,,0.04,WeatherDisplay:10.37,2013-06-10 08:08:00,
2013-06-10 03:13:00,62.4,61.3,29.80,South,179,3.2,0.0,96,0.04,,,0.04,WeatherDisplay:10.37,2013-06-10 08:13:00,
2013-06-10 03:18:00,62.4,61.3,29.80,South,178,0.0,0.0,96,0.04,,,0.04,WeatherDisplay:10.37,2013-06-10 08:18:00,
2013-06-10 03:23:00,62.4,61.3,29.80,South,178,0.0,0.0,96,0.04,,,0.04,WeatherDisplay:10.37,2013-06-10 08:23:00,
2013-06-10 03:28:00,62.4,61.3,29.80,North,350,0.0,0.0,96,0.00,,,0.08,WeatherDisplay:10.37,2013-06-10 08:28:00,
2013-06-10 03:33:00,62.6,61.4,29.80,WNW,292,0.0,0.0,96,0.04,RA,,0.08,WeatherDisplay:10.37,2013-06-10 08:33:00,
2013-06-10 03:38:00,62.6,61.4,29.80,South,172,0.0,0.0,96,0.04,RA,,0.08,WeatherDisplay:10.37,2013-06-10 08:38:00,
2013-06-10 03:43:00,62.6,61.4,29.80,SSW,206,3.5,3.5,96,0.04,,,0.08,WeatherDisplay:10.37,2013-06-10 08:43:00,
2013-06-10 03:48:00,62.6,61.4,29.80,South,180,3.5,3.5,96,0.04,,,0.08,WeatherDisplay:10.37,2013-06-10 08:48:00,
2013-06-10 03:53:00,62.6,61.4,29.80,SSE,161,5.8,5.8,96,0.04,,,0.08,WeatherDisplay:10.37,2013-06-10 08:53:00,
2013-06-10 03:58:00,62.6,61.4,29.80,South,171,2.3,0.0,96,0.04,,,0.08,WeatherDisplay:10.37,2013-06-10 08:58:00,
2013-06-10 04:03:00,62.4,61.3,29.80,SSE,165,0.0,0.0,96,0.04,,,0.08,WeatherDisplay:10.37,2013-06-10 09:03:00,
2013-06-10 04:08:00,62.6,61.7,29.80,SSE,157,3.5,0.0,97,0.04,,,0.08,WeatherDisplay:10.37,2013-06-10 09:08:00,
2013-06-10 04:13:00,62.6,61.7,29.80,South,184,2.7,0.0,97,0.04,,,0.08,WeatherDisplay:10.37,2013-06-10 09:13:00,
2013-06-10 04:18:00,62.6,61.7,29.80,South,177,3.6,3.6,97,0.04,,,0.08,WeatherDisplay:10.37,2013-06-10 09:18:00,
2013-06-10 04:23:00,62.6,61.7,29.80,SSE,156,3.5,3.5,97,0.04,,,0.08,WeatherDisplay:10.37,2013-06-10 09:23:00,
2013-06-10 04:28:00,62.6,61.7,29.80,SSE,165,3.5,3.5,97,0.04,,,0.08,WeatherDisplay:10.37,2013-06-10 09:28:00,
2013-06-10 04:33:00,62.6,61.7,29.80,South,177,5.8,5.8,97,0.00,,,0.08,WeatherDisplay:10.37,2013-06-10 09:33:00,
2013-06-10 04:38:00,62.4,61.6,29.80,South,180,5.8,5.8,97,0.00,,,0.08,WeatherDisplay:10.37,2013-06-10 09:38:00,
2013-06-10 04:43:00,62.4,61.6,29.80,SSE,151,5.4,5.4,97,0.00,,,0.08,WeatherDisplay:10.37,2013-06-10 09:43:00,
2013-06-10 04:48:00,62.2,61.4,29.80,SE,146,6.9,6.9,97,0.00,,,0.08,WeatherDisplay:10.37,2013-06-10 09:48:00,
2013-06-10 04:53:00,62.4,61.6,29.80,South,190,5.8,5.8,97,0.00,,,0.08,WeatherDisplay:10.37,2013-06-10 09:53:00,
2013-06-10 04:58:00,62.4,61.6,29.80,South,188,3.6,3.6,97,0.00,,,0.08,WeatherDisplay:10.37,2013-06-10 09:58:00,
2013-06-10 05:03:00,62.4,61.6,29.80,SSE,165,4.6,4.6,97,0.00,,,0.08,WeatherDisplay:10.37,2013-06-10 10:03:00,
2013-06-10 05:08:00,62.4,61.6,29.80,South,180,6.3,6.3,97,0.00,,,0.08,WeatherDisplay:10.37,2013-06-10 10:08:00,
2013-06-10 05:13:00,62.4,61.6,29.80,South,189,5.4,5.4,97,0.00,,,0.08,WeatherDisplay:10.37,2013-06-10 10:13:00,
2013-06-10 05:18:00,62.4,61.6,29.80,South,169,5.8,5.8,97,0.00,,,0.08,WeatherDisplay:10.37,2013-06-10 10:18:00,
2013-06-10 05:23:00,62.4,61.3,29.80,South,181,5.8,5.8,96,0.00,,,0.08,WeatherDisplay:10.37,2013-06-10 10:23:00,
2013-06-10 05:28:00,62.4,61.3,29.80,SSE,166,5.8,5.8,96,0.00,,,0.08,WeatherDisplay:10.37,2013-06-10 10:28:00,
2013-06-10 05:33:00,62.4,61.3,29.80,SSE,163,0.0,0.0,96,0.00,,,0.08,WeatherDisplay:10.37,2013-06-10 10:33:00,
2013-06-10 05:38:00,62.4,61.3,29.80,South,175,4.6,4.6,96,0.00,,,0.08,WeatherDisplay:10.37,2013-06-10 10:38:00,
2013-06-10 05:43:00,62.4,61.3,29.80,South,191,5.4,5.4,96,0.00,,,0.08,WeatherDisplay:10.37,2013-06-10 10:43:00,
2013-06-10 05:48:00,62.4,61.3,29.80,South,172,2.3,0.0,96,0.00,,,0.08,WeatherDisplay:10.37,2013-06-10 10:48:00,
2013-06-10 05:53:00,62.4,61.3,29.80,SSW,195,3.6,3.6,96,0.00,,,0.08,WeatherDisplay:10.37,2013-06-10 10:53:00,
2013-06-10 05:58:00,62.4,61.0,29.80,South,173,4.1,4.1,95,0.00,,,0.08,WeatherDisplay:10.37,2013-06-10 10:58:00,
2013-06-10 06:03:00,62.4,61.0,29.80,SSW,203,2.3,0.0,95,0.00,,,0.08,WeatherDisplay:10.37,2013-06-10 11:03:00,
2013-06-10 06:08:00,62.4,61.0,29.83,SSW,203,0.0,0.0,95,0.00,,,0.08,WeatherDisplay:10.37,2013-06-10 11:08:00,
2013-06-10 06:13:00,62.4,61.0,29.83,SSW,203,0.0,0.0,95,0.00,,,0.08,WeatherDisplay:10.37,2013-06-10 11:13:00,
2013-06-10 06:18:00,62.4,61.0,29.83,SSW,203,0.0,0.0,95,0.00,,,0.08,WeatherDisplay:10.37,2013-06-10 11:18:00,
2013-06-10 06:23:00,62.4,61.0,29.83,SSW,203,0.0,0.0,95,0.00,,,0.08,WeatherDisplay:10.37,2013-06-10 11:23:00,
2013-06-10 06:28:00,62.4,61.0,29.83,SSW,203,0.0,0.0,95,0.00,,,0.08,WeatherDisplay:10.37,2013-06-10 11:28:00,
2013-06-10 06:33:00,62.6,61.1,29.83,SSW,203,0.0,0.0,95,0.00,,,0.08,WeatherDisplay:10.37,2013-06-10 11:33:00,
2013-06-10 06:38:00,62.6,61.1,29.83,SSW,203,0.0,0.0,95,0.00,,,0.08,WeatherDisplay:10.37,2013-06-10 11:38:00,
2013-06-10 06:43:00,62.4,61.0,29.83,SSW,203,0.0,0.0,95,0.00,,,0.08,WeatherDisplay:10.37,2013-06-10 11:43:00,
2013-06-10 06:48:00,62.4,61.0,29.83,South,177,0.0,0.0,95,0.00,,,0.08,WeatherDisplay:10.37,2013-06-10 11:48:00,
2013-06-10 06:53:00,62.4,61.0,29.83,South,177,0.0,0.0,95,0.00,,,0.08,WeatherDisplay:10.37,2013-06-10 11:53:00,
2013-06-10 06:58:00,62.4,61.0,29.83,South,181,0.0,0.0,95,0.00,,,0.08,WeatherDisplay:10.37,2013-06-10 11:58:00,
2013-06-10 07:03:00,62.4,61.0,29.83,South,181,0.0,0.0,95,0.00,,,0.08,WeatherDisplay:10.37,2013-06-10 12:03:00,
2013-06-10 07:08:00,62.6,61.1,29.83,South,181,0.0,0.0,95,0.00,,,0.08,WeatherDisplay:10.37,2013-06-10 12:08:00,
2013-06-10 07:13:00,62.8,61.3,29.83,SSW,196,2.3,0.0,95,0.00,,,0.08,WeatherDisplay:10.37,2013-06-10 12:13:00,
2013-06-10 07:18:00,62.8,61.6,29.83,SSE,162,2.3,0.0,96,0.00,,,0.08,WeatherDisplay:10.37,2013-06-10 12:18:00,
2013-06-10 07:23:00,63.0,61.8,29.83,South,178,0.0,0.0,96,0.00,,,0.08,WeatherDisplay:10.37,2013-06-10 12:23:00,
2013-06-10 07:28:00,63.1,62.0,29.83,South,178,0.0,0.0,96,0.00,,,0.08,WeatherDisplay:10.37,2013-06-10 12:28:00,
2013-06-10 07:33:00,63.0,61.5,29.83,South,178,2.3,0.0,95,0.00,,,0.08,WeatherDisplay:10.37,2013-06-10 12:33:00,
2013-06-10 07:38:00,63.1,61.7,29.83,SSW,194,0.0,0.0,95,0.00,,,0.08,WeatherDisplay:10.37,2013-06-10 12:38:00,
2013-06-10 07:43:00,63.3,61.9,29.83,SSW,194,0.0,0.0,95,0.00,,,0.08,WeatherDisplay:10.37,2013-06-10 12:43:00,
2013-06-10 07:48:00,63.5,62.0,29.83,SSW,194,0.0,0.0,95,0.00,,,0.08,WeatherDisplay:10.37,2013-06-10 12:48:00,
2013-06-10 07:53:00,63.7,62.2,29.83,SSW,194,0.0,0.0,95,0.00,,,0.08,WeatherDisplay:10.37,2013-06-10 12:53:00,
2013-06-10 07:58:00,64.0,62.9,29.83,SSW,201,0.0,0.0,96,0.00,,,0.08,WeatherDisplay:10.37,2013-06-10 12:58:00,
2013-06-10 08:03:00,64.4,62.9,29.83,South,179,2.7,0.0,95,0.00,,,0.08,WeatherDisplay:10.37,2013-06-10 13:03:00,
2013-06-10 08:08:00,64.4,62.6,29.83,South,182,3.5,3.5,94,0.00,,,0.08,WeatherDisplay:10.37,2013-06-10 13:08:00,
2013-06-10 08:13:00,64.6,62.2,29.83,SSE,156,4.6,0.0,92,0.00,,,0.08,WeatherDisplay:10.37,2013-06-10 13:13:00,
2013-06-10 08:18:00,64.8,60.5,29.83,SSE,161,3.5,3.5,86,0.00,,,0.08,WeatherDisplay:10.37,2013-06-10 13:18:00,
2013-06-10 08:23:00,65.5,61.2,29.83,South,169,3.5,0.0,86,0.00,,,0.08,WeatherDisplay:10.37,2013-06-10 13:23:00,
2013-06-10 08:28:00,66.0,61.7,29.83,SSE,168,2.3,0.0,86,0.00,,,0.08,WeatherDisplay:10.37,2013-06-10 13:28:00,
2013-06-10 08:33:00,66.4,62.1,29.83,South,173,3.2,0.0,86,0.00,,,0.08,WeatherDisplay:10.37,2013-06-10 13:33:00,
2013-06-10 08:38:00,66.4,61.4,29.83,SSW,204,4.6,4.6,84,0.00,,,0.08,WeatherDisplay:10.37,2013-06-10 13:38:00,
2013-06-10 08:43:00,66.0,60.0,29.83,SSE,163,2.7,0.0,81,0.00,,,0.08,WeatherDisplay:10.37,2013-06-10 13:43:00,
2013-06-10 08:48:00,66.4,59.7,29.83,South,172,0.0,0.0,79,0.00,,,0.08,WeatherDisplay:10.37,2013-06-10 13:48:00,
2013-06-10 08:53:00,66.9,60.2,29.83,West,280,3.5,0.0,79,0.00,,,0.08,WeatherDisplay:10.37,2013-06-10 13:53:00,
2013-06-10 08:58:00,66.9,59.1,29.83,WSW,245,0.0,0.0,76,0.00,,,0.08,WeatherDisplay:10.37,2013-06-10 13:58:00,
2013-06-10 09:03:00,67.6,59.8,29.83,West,263,0.0,0.0,76,0.00,,,0.08,WeatherDisplay:10.37,2013-06-10 14:03:00,
2013-06-10 09:08:00,68.4,60.5,29.85,WNW,290,5.8,5.8,76,0.00,,,0.08,WeatherDisplay:10.37,2013-06-10 14:08:00,
2013-06-10 09:13:00,68.5,58.4,29.85,West,275,4.6,4.6,70,0.00,,,0.08,WeatherDisplay:10.37,2013-06-10 14:13:00,
2013-06-10 09:18:00,69.3,59.1,29.85,WSW,255,5.8,0.0,70,0.00,,,0.08,WeatherDisplay:10.37,2013-06-10 14:18:00,
2013-06-10 09:23:00,69.8,59.2,29.85,NNW,332,5.8,5.8,69,0.00,,,0.08,WeatherDisplay:10.37,2013-06-10 14:23:00,
2013-06-10 09:28:00,69.8,57.9,29.85,NNW,346,5.9,5.9,66,0.00,,,0.08,WeatherDisplay:10.37,2013-06-10 14:28:00,
2013-06-10 09:33:00,70.2,58.7,29.85,NNW,339,2.7,0.0,67,0.00,,,0.08,WeatherDisplay:10.37,2013-06-10 14:33:00,
2013-06-10 09:38:00,70.7,58.8,29.83,NNW,342,5.0,0.0,66,0.00,,,0.08,WeatherDisplay:10.37,2013-06-10 14:38:00,
2013-06-10 09:43:00,70.9,59.0,29.83,NW,321,3.5,0.0,66,0.00,,,0.08,WeatherDisplay:10.37,2013-06-10 14:43:00,
2013-06-10 09:48:00,71.2,58.0,29.83,NNW,343,4.6,4.6,63,0.00,,,0.08,WeatherDisplay:10.37,2013-06-10 14:48:00,
2013-06-10 09:53:00,71.2,56.6,29.85,North,359,5.8,5.8,60,0.00,,,0.08,WeatherDisplay:10.37,2013-06-10 14:53:00,
2013-06-10 09:58:00,72.0,56.4,29.85,NNE,23,5.9,5.9,58,0.00,,,0.08,WeatherDisplay:10.37,2013-06-10 14:58:00,
2013-06-10 10:03:00,72.5,54.9,29.85,West,276,3.5,3.5,54,0.00,,,0.08,WeatherDisplay:10.37,2013-06-10 15:03:00,
2013-06-10 10:08:00,73.8,56.1,29.83,North,350,8.1,8.1,54,0.00,,,0.08,WeatherDisplay:10.37,2013-06-10 15:08:00,
2013-06-10 10:13:00,74.8,56.6,29.83,NNW,344,8.1,8.1,53,0.00,,,0.08,WeatherDisplay:10.37,2013-06-10 15:13:00,
2013-06-10 10:18:00,75.0,56.7,29.83,North,10,5.4,0.0,53,0.00,,,0.08,WeatherDisplay:10.37,2013-06-10 15:18:00,
2013-06-10 10:23:00,75.7,57.4,29.85,NNW,329,5.8,5.8,53,0.00,,,0.08,WeatherDisplay:10.37,2013-06-10 15:23:00,
2013-06-10 10:28:00,76.6,58.2,29.85,WSW,246,3.5,0.0,53,0.00,,,0.08,WeatherDisplay:10.37,2013-06-10 15:28:00,
2013-06-10 10:33:00,77.2,58.7,29.85,NNE,30,5.9,5.9,53,0.00,,,0.08,WeatherDisplay:10.37,2013-06-10 15:33:00,
2013-06-10 10:38:00,77.0,58.6,29.85,NNW,336,8.1,8.1,53,0.00,,,0.08,WeatherDisplay:10.37,2013-06-10 15:38:00,
2013-06-10 10:43:00,77.0,58.6,29.85,SW,216,5.4,5.4,53,0.00,,,0.08,WeatherDisplay:10.37,2013-06-10 15:43:00,
2013-06-10 10:48:00,76.5,58.1,29.85,NNW,335,8.4,8.4,53,0.00,,,0.08,WeatherDisplay:10.37,2013-06-10 15:48:00,
2013-06-10 10:53:00,75.9,57.6,29.85,North,3,8.1,8.1,53,0.00,,,0.08,WeatherDisplay:10.37,2013-06-10 15:53:00,
2013-06-10 10:58:00,75.4,57.1,29.85,NNE,13,8.1,8.1,53,0.00,,,0.08,WeatherDisplay:10.37,2013-06-10 15:58:00,
2013-06-10 11:03:00,75.9,57.6,29.85,NW,320,5.8,5.8,53,0.00,,,0.08,WeatherDisplay:10.37,2013-06-10 16:03:00,
2013-06-10 11:08:00,75.7,57.4,29.85,WNW,294,5.8,5.8,53,0.00,,,0.08,WeatherDisplay:10.37,2013-06-10 16:08:00,
2013-06-10 11:13:00,75.9,57.6,29.85,West,278,5.0,5.0,53,0.00,,,0.08,WeatherDisplay:10.37,2013-06-10 16:13:00,
2013-06-10 11:18:00,75.7,57.4,29.85,North,5,9.2,9.2,53,0.00,,,0.08,WeatherDisplay:10.37,2013-06-10 16:18:00,
2013-06-10 11:23:00,76.5,58.1,29.85,North,359,8.1,8.1,53,0.00,,,0.08,WeatherDisplay:10.37,2013-06-10 16:23:00,
2013-06-10 11:28:00,77.2,58.7,29.85,West,261,5.8,5.8,53,0.00,,,0.08,WeatherDisplay:10.37,2013-06-10 16:28:00,
2013-06-10 11:33:00,77.2,58.7,29.85,West,274,5.0,5.0,53,0.00,,,0.08,WeatherDisplay:10.37,2013-06-10 16:33:00,
2013-06-10 11:38:00,75.9,57.6,29.85,NNW,344,8.1,8.1,53,0.00,,,0.08,WeatherDisplay:10.37,2013-06-10 16:38:00,
2013-06-10 11:43:00,75.6,57.2,29.85,North,349,7.2,7.2,53,0.00,,,0.08,WeatherDisplay:10.37,2013-06-10 16:43:00,
2013-06-10 11:48:00,75.6,57.2,29.85,WSW,255,3.5,3.5,53,0.00,,,0.08,WeatherDisplay:10.37,2013-06-10 16:48:00,
2013-06-10 11:53:00,75.0,56.7,29.85,NNE,15,5.8,5.8,53,0.00,,,0.08,WeatherDisplay:10.37,2013-06-10 16:53:00,
2013-06-10 11:58:00,75.6,57.2,29.85,NNW,333,4.6,4.6,53,0.00,,,0.08,WeatherDisplay:10.37,2013-06-10 16:58:00,
2013-06-10 12:03:00,77.2,58.7,29.85,WNW,296,6.9,6.9,53,0.00,,,0.08,WeatherDisplay:10.37,2013-06-10 17:03:00,
2013-06-10 12:08:00,76.8,58.4,29.85,WNW,296,8.1,8.1,53,0.00,,,0.08,WeatherDisplay:10.37,2013-06-10 17:08:00,
2013-06-10 12:13:00,75.6,57.2,29.85,WNW,282,8.1,8.1,53,0.00,,,0.08,WeatherDisplay:10.37,2013-06-10 17:13:00,
2013-06-10 12:18:00,74.8,56.6,29.85,West,278,5.8,5.8,53,0.00,,,0.08,WeatherDisplay:10.37,2013-06-10 17:18:00,
2013-06-10 12:23:00,76.3,57.9,29.85,NNW,348,8.1,8.1,53,0.00,,,0.08,WeatherDisplay:10.37,2013-06-10 17:23:00,
2013-06-10 12:28:00,77.5,59.1,29.85,North,359,8.1,8.1,53,0.00,,,0.08,WeatherDisplay:10.37,2013-06-10 17:28:00,
2013-06-10 12:33:00,78.6,60.1,29.85,North,1,8.1,8.1,53,0.00,,,0.08,WeatherDisplay:10.37,2013-06-10 17:33:00,
2013-06-10 12:38:00,79.0,60.4,29.85,WNW,286,5.8,5.8,53,0.00,,,0.08,WeatherDisplay:10.37,2013-06-10 17:38:00,
2013-06-10 12:43:00,80.1,60.8,29.85,WNW,292,5.8,5.8,52,0.00,,,0.08,WeatherDisplay:10.37,2013-06-10 17:43:00,
2013-06-10 12:48:00,80.4,61.2,29.85,NNW,344,6.9,6.9,52,0.00,,,0.08,WeatherDisplay:10.37,2013-06-10 17:48:00,
2013-06-10 12:53:00,81.5,62.2,29.85,NNE,12,8.1,8.1,52,0.00,,,0.08,WeatherDisplay:10.37,2013-06-10 17:53:00,
2013-06-10 12:58:00,81.1,61.8,29.85,NNE,20,8.1,8.1,52,0.00,,,0.08,WeatherDisplay:10.37,2013-06-10 17:58:00,
2013-06-10 13:03:00,80.8,61.5,29.85,North,5,11.5,11.5,52,0.00,,,0.08,WeatherDisplay:10.37,2013-06-10 18:03:00,
2013-06-10 13:08:00,80.6,61.3,29.85,NNW,348,8.1,8.1,52,0.00,,,0.08,WeatherDisplay:10.37,2013-06-10 18:08:00,
2013-06-10 13:13:00,80.2,61.0,29.85,NNW,332,10.4,10.4,52,0.00,,,0.08,WeatherDisplay:10.37,2013-06-10 18:13:00,
2013-06-10 13:18:00,80.1,60.8,29.85,West,275,10.4,10.4,52,0.00,,,0.08,WeatherDisplay:10.37,2013-06-10 18:18:00,
2013-06-10 13:23:00,79.0,60.4,29.85,WNW,287,8.1,8.1,53,0.00,,,0.08,WeatherDisplay:10.37,2013-06-10 18:23:00,
2013-06-10 13:28:00,80.4,61.2,29.85,ESE,102,9.2,9.2,52,0.00,,,0.08,WeatherDisplay:10.37,2013-06-10 18:28:00,
2013-06-10 13:33:00,81.7,62.3,29.85,WNW,285,8.1,8.1,52,0.00,,,0.08,WeatherDisplay:10.37,2013-06-10 18:33:00,
2013-06-10 13:38:00,80.6,61.3,29.85,North,360,9.2,9.2,52,0.00,,,0.08,WeatherDisplay:10.37,2013-06-10 18:38:00,
2013-06-10 13:43:00,78.6,60.1,29.85,NNW,338,9.2,9.2,53,0.00,,,0.08,WeatherDisplay:10.37,2013-06-10 18:43:00,
2013-06-10 13:48:00,77.2,58.7,29.85,NNW,339,9.2,9.2,53,0.00,,,0.08,WeatherDisplay:10.37,2013-06-10 18:48:00,
2013-06-10 13:53:00,77.7,59.2,29.85,North,353,5.8,5.8,53,0.00,,,0.08,WeatherDisplay:10.37,2013-06-10 18:53:00,
2013-06-10 13:58:00,79.3,60.7,29.85,NW,321,5.9,5.9,53,0.00,,,0.08,WeatherDisplay:10.37,2013-06-10 18:58:00,
2013-06-10 14:03:00,79.3,60.7,29.85,SW,229,4.6,4.6,53,0.00,,,0.08,WeatherDisplay:10.37,2013-06-10 19:03:00,
2013-06-10 14:08:00,79.0,60.4,29.85,NW,305,5.9,5.9,53,0.00,,,0.08,WeatherDisplay:10.37,2013-06-10 19:08:00,
2013-06-10 14:13:00,77.7,59.2,29.85,WSW,250,5.8,5.8,53,0.00,,,0.08,WeatherDisplay:10.37,2013-06-10 19:13:00,
2013-06-10 14:18:00,77.2,58.7,29.85,SSW,205,6.9,6.9,53,0.00,,,0.08,WeatherDisplay:10.37,2013-06-10 19:18:00,
2013-06-10 14:23:00,77.9,59.4,29.85,SSW,195,6.9,6.9,53,0.00,,,0.08,WeatherDisplay:10.37,2013-06-10 19:23:00,
2013-06-10 14:28:00,78.1,59.6,29.85,West,267,3.5,3.5,53,0.00,,,0.08,WeatherDisplay:10.37,2013-06-10 19:28:00,
2013-06-10 14:33:00,78.3,59.7,29.85,NW,314,5.4,5.4,53,0.00,,,0.08,WeatherDisplay:10.37,2013-06-10 19:33:00,
2013-06-10 14:38:00,77.9,59.4,29.85,WNW,303,5.0,5.0,53,0.00,,,0.08,WeatherDisplay:10.37,2013-06-10 19:38:00,
2013-06-10 14:43:00,78.4,59.9,29.85,NNE,12,9.2,9.2,53,0.00,,,0.08,WeatherDisplay:10.37,2013-06-10 19:43:00,
2013-06-10 14:48:00,80.8,61.5,29.85,WSW,258,3.6,3.6,52,0.00,,,0.08,WeatherDisplay:10.37,2013-06-10 19:48:00,
2013-06-10 14:53:00,82.4,63.0,29.85,West,277,8.1,8.1,52,0.00,,,0.08,WeatherDisplay:10.37,2013-06-10 19:53:00,
2013-06-10 14:59:00,81.3,62.0,29.85,WNW,282,5.8,5.9,52,0.00,,,0.08,WeatherDisplay:10.37,2013-06-10 19:59:00,
2013-06-10 15:04:00,81.0,61.7,29.85,NW,305,5.8,5.8,52,0.00,,,0.08,WeatherDisplay:10.37,2013-06-10 20:04:00,
2013-06-10 15:09:00,80.4,61.2,29.85,North,2,9.2,9.2,52,0.00,,,0.08,WeatherDisplay:10.37,2013-06-10 20:09:00,
2013-06-10 15:14:00,80.8,61.5,29.85,West,269,5.8,5.8,52,0.00,,,0.08,WeatherDisplay:10.37,2013-06-10 20:14:00,
2013-06-10 15:19:00,80.2,61.0,29.85,NNW,332,5.9,5.9,52,0.00,,,0.08,WeatherDisplay:10.37,2013-06-10 20:19:00,
2013-06-10 15:24:00,80.4,61.2,29.85,NNE,16,10.4,10.4,52,0.00,,,0.08,WeatherDisplay:10.37,2013-06-10 20:24:00,
2013-06-10 15:29:00,80.1,60.8,29.85,NW,315,10.4,10.4,52,0.00,,,0.08,WeatherDisplay:10.37,2013-06-10 20:29:00,
2013-06-10 15:34:00,80.1,60.8,29.85,SW,230,8.1,8.1,52,0.00,,,0.08,WeatherDisplay:10.37,2013-06-10 20:34:00,
2013-06-10 15:39:00,80.2,61.0,29.85,NNE,19,8.1,8.1,52,0.00,,,0.08,WeatherDisplay:10.37,2013-06-10 20:39:00,
2013-06-10 15:44:00,79.3,60.7,29.85,North,352,5.8,5.8,53,0.00,,,0.08,WeatherDisplay:10.37,2013-06-10 20:44:00,
2013-06-10 15:49:00,78.4,59.9,29.85,WSW,247,8.1,8.1,53,0.00,,,0.08,WeatherDisplay:10.37,2013-06-10 20:49:00,
2013-06-10 15:54:00,78.6,60.1,29.85,North,355,8.1,8.1,53,0.00,,,0.08,WeatherDisplay:10.37,2013-06-10 20:54:00,
2013-06-10 15:59:00,78.6,60.1,29.85,North,349,8.1,8.1,53,0.00,,,0.08,WeatherDisplay:10.37,2013-06-10 20:59:00,
2013-06-10 16:04:00,79.0,60.4,29.85,NNW,347,5.8,5.8,53,0.00,,,0.08,WeatherDisplay:10.37,2013-06-10 21:04:00,
2013-06-10 16:09:00,78.8,60.2,29.85,North,355,10.4,10.4,53,0.00,,,0.08,WeatherDisplay:10.37,2013-06-10 21:09:00,
2013-06-10 16:14:00,78.1,59.6,29.85,North,358,4.6,4.6,53,0.00,,,0.08,WeatherDisplay:10.37,2013-06-10 21:14:00,
2013-06-10 16:19:00,79.2,60.6,29.85,NNW,340,5.8,5.8,53,0.00,,,0.08,WeatherDisplay:10.37,2013-06-10 21:19:00,
2013-06-10 16:24:00,79.2,60.6,29.85,North,349,11.5,11.5,53,0.00,,,0.08,WeatherDisplay:10.37,2013-06-10 21:24:00,
2013-06-10 16:29:00,77.7,59.2,29.85,North,355,9.2,9.2,53,0.00,,,0.08,WeatherDisplay:10.37,2013-06-10 21:29:00,
2013-06-10 16:34:00,77.5,59.1,29.85,NNW,337,10.4,10.4,53,0.00,,,0.08,WeatherDisplay:10.37,2013-06-10 21:34:00,
2013-06-10 16:39:00,78.1,59.6,29.85,NNW,340,9.2,9.2,53,0.00,,,0.08,WeatherDisplay:10.37,2013-06-10 21:39:00,
2013-06-10 16:44:00,78.3,59.7,29.85,WNW,298,12.7,12.7,53,0.00,,,0.08,WeatherDisplay:10.37,2013-06-10 21:44:00,
2013-06-10 16:49:00,77.9,59.4,29.85,ENE,59,9.2,9.2,53,0.00,,,0.08,WeatherDisplay:10.37,2013-06-10 21:49:00,
2013-06-10 16:54:00,77.4,58.9,29.88,WNW,292,8.1,8.1,53,0.00,,,0.08,WeatherDisplay:10.37,2013-06-10 21:54:00,
2013-06-10 16:59:00,77.5,59.1,29.88,NNW,338,8.1,8.1,53,0.00,,,0.08,WeatherDisplay:10.37,2013-06-10 21:59:00,
2013-06-10 17:04:00,77.7,59.2,29.88,North,4,8.1,8.1,53,0.00,,,0.08,WeatherDisplay:10.37,2013-06-10 22:04:00,
2013-06-10 17:09:00,77.5,59.1,29.88,NNW,332,5.8,5.8,53,0.00,,,0.08,WeatherDisplay:10.37,2013-06-10 22:09:00,
2013-06-10 17:14:00,77.4,58.9,29.88,NW,325,8.1,8.1,53,0.00,,,0.08,WeatherDisplay:10.37,2013-06-10 22:14:00,
2013-06-10 17:19:00,77.5,59.1,29.88,NNE,13,5.8,5.8,53,0.00,,,0.08,WeatherDisplay:10.37,2013-06-10 22:19:00,
2013-06-10 17:24:00,77.4,58.9,29.88,NNW,330,5.8,5.8,53,0.00,,,0.08,WeatherDisplay:10.37,2013-06-10 22:24:00,
2013-06-10 17:29:00,77.4,58.9,29.88,North,356,5.8,5.9,53,0.00,,,0.08,WeatherDisplay:10.37,2013-06-10 22:29:00,
2013-06-10 17:34:00,76.6,58.2,29.88,North,349,5.8,5.9,53,0.00,,,0.08,WeatherDisplay:10.37,2013-06-10 22:34:00,
2013-06-10 17:39:00,76.6,58.2,29.88,NNW,337,5.8,5.8,53,0.00,,,0.08,WeatherDisplay:10.37,2013-06-10 22:39:00,
2013-06-10 17:44:00,76.6,58.2,29.88,North,352,10.4,10.4,53,0.00,,,0.08,WeatherDisplay:10.37,2013-06-10 22:44:00,
2013-06-10 17:49:00,76.6,58.2,29.88,North,352,5.8,5.8,53,0.00,,,0.08,WeatherDisplay:10.37,2013-06-10 22:49:00,
2013-06-10 17:54:00,76.6,58.2,29.88,North,349,5.8,5.8,53,0.00,,,0.08,WeatherDisplay:10.37,2013-06-10 22:54:00,
2013-06-10 17:59:00,76.6,58.2,29.88,North,9,4.6,4.6,53,0.00,,,0.08,WeatherDisplay:10.37,2013-06-10 22:59:00,
2013-06-10 18:04:00,76.6,58.2,29.88,North,357,4.6,4.6,53,0.00,,,0.08,WeatherDisplay:10.37,2013-06-10 23:04:00,
2013-06-10 18:09:00,76.6,58.2,29.88,North,350,4.6,4.6,53,0.00,,,0.08,WeatherDisplay:10.37,2013-06-10 23:09:00,
2013-06-10 18:14:00,76.6,58.2,29.88,WNW,284,5.8,5.8,53,0.00,,,0.08,WeatherDisplay:10.37,2013-06-10 23:14:00,
2013-06-10 18:19:00,76.3,57.9,29.88,North,357,5.8,5.8,53,0.00,,,0.08,WeatherDisplay:10.37,2013-06-10 23:19:00,
2013-06-10 18:24:00,76.1,57.7,29.88,North,355,2.3,2.3,53,0.00,,,0.08,WeatherDisplay:10.37,2013-06-10 23:24:00,
2013-06-10 18:29:00,76.1,57.7,29.88,NNW,346,5.8,5.8,53,0.00,,,0.08,WeatherDisplay:10.37,2013-06-10 23:29:00,
2013-06-10 18:34:00,76.1,57.7,29.88,NNW,334,5.8,5.8,53,0.00,,,0.08,WeatherDisplay:10.37,2013-06-10 23:34:00,
2013-06-10 18:39:00,76.1,57.7,29.88,NNW,344,3.5,3.5,53,0.00,,,0.08,WeatherDisplay:10.37,2013-06-10 23:39:00,
2013-06-10 18:44:00,76.1,57.7,29.88,NNW,347,0.0,0.0,53,0.00,,,0.08,WeatherDisplay:10.37,2013-06-10 23:44:00,
2013-06-10 18:49:00,76.1,57.7,29.88,NNW,347,0.0,0.0,53,0.00,,,0.08,WeatherDisplay:10.37,2013-06-10 23:49:00,
2013-06-10 18:54:00,76.1,57.7,29.88,NNW,347,0.0,0.0,53,0.00,,,0.08,WeatherDisplay:10.37,2013-06-10 23:54:00,
2013-06-10 18:59:00,76.1,57.7,29.88,NNW,344,4.6,4.6,53,0.00,,,0.08,WeatherDisplay:10.37,2013-06-10 23:59:00,
2013-06-10 19:04:00,76.1,57.7,29.88,NNW,342,3.5,3.5,53,0.00,,,0.08,WeatherDisplay:10.37,2013-06-11 00:04:00,
2013-06-10 19:09:00,76.1,57.7,29.88,NNW,342,0.0,0.0,53,0.00,,,0.08,WeatherDisplay:10.37,2013-06-11 00:09:00,
2013-06-10 19:14:00,76.1,57.7,29.88,North,350,4.6,4.6,53,0.00,,,0.08,WeatherDisplay:10.37,2013-06-11 00:14:00,
2013-06-10 19:19:00,76.1,57.7,29.88,North,350,0.0,0.0,53,0.00,,,0.08,WeatherDisplay:10.37,2013-06-11 00:19:00,
2013-06-10 19:24:00,74.8,56.6,29.88,NNW,346,4.1,4.1,53,0.00,,,0.08,WeatherDisplay:10.37,2013-06-11 00:24:00,
2013-06-10 19:29:00,74.5,56.2,29.88,North,349,2.3,2.3,53,0.00,,,0.08,WeatherDisplay:10.37,2013-06-11 00:29:00,
2013-06-10 19:34:00,74.1,55.9,29.88,North,351,0.0,0.0,53,0.00,,,0.08,WeatherDisplay:10.37,2013-06-11 00:34:00,
2013-06-10 19:39:00,73.9,56.2,29.88,North,351,0.0,0.0,54,0.00,,,0.08,WeatherDisplay:10.37,2013-06-11 00:39:00,
2013-06-10 19:44:00,73.8,56.1,29.88,North,351,0.0,0.0,54,0.00,,,0.08,WeatherDisplay:10.37,2013-06-11 00:44:00,
2013-06-10 19:49:00,73.2,55.6,29.88,North,351,0.0,0.0,54,0.00,,,0.08,WeatherDisplay:10.37,2013-06-11 00:49:00,
2013-06-10 19:54:00,73.2,55.6,29.88,North,351,0.0,0.0,54,0.00,,,0.08,WeatherDisplay:10.37,2013-06-11 00:54:00,
2013-06-10 19:59:00,72.5,54.9,29.88,North,351,0.0,0.0,54,0.00,,,0.08,WeatherDisplay:10.37,2013-06-11 00:59:00,
2013-06-10 20:04:00,72.3,54.7,29.88,North,351,0.0,0.0,54,0.00,,,0.08,WeatherDisplay:10.37,2013-06-11 01:04:00,
2013-06-10 20:09:00,71.6,54.1,29.88,North,351,0.0,0.0,54,0.00,,,0.08,WeatherDisplay:10.37,2013-06-11 01:09:00,
2013-06-10 20:14:00,71.6,54.1,29.88,North,351,0.0,0.0,54,0.00,,,0.08,WeatherDisplay:10.37,2013-06-11 01:14:00,
2013-06-10 20:19:00,71.6,54.1,29.88,North,351,0.0,0.0,54,0.00,,,0.08,WeatherDisplay:10.37,2013-06-11 01:19:00,
2013-06-10 20:24:00,70.7,53.2,29.88,North,351,0.0,0.0,54,0.00,,,0.08,WeatherDisplay:10.37,2013-06-11 01:24:00,
2013-06-10 20:29:00,70.7,53.2,29.88,North,351,0.0,0.0,54,0.00,,,0.08,WeatherDisplay:10.37,2013-06-11 01:29:00,
2013-06-10 20:34:00,70.0,54.5,29.88,North,351,0.0,0.0,58,0.00,,,0.08,WeatherDisplay:10.37,2013-06-11 01:34:00,
2013-06-10 20:39:00,69.6,54.2,29.91,North,351,0.0,0.0,58,0.00,,,0.08,WeatherDisplay:10.37,2013-06-11 01:39:00,
2013-06-10 20:44:00,69.1,53.7,29.91,North,351,0.0,0.0,58,0.00,,,0.08,WeatherDisplay:10.37,2013-06-11 01:44:00,
2013-06-10 20:49:00,69.1,53.7,29.91,North,351,0.0,0.0,58,0.00,,,0.08,WeatherDisplay:10.37,2013-06-11 01:49:00,
2013-06-10 20:54:00,68.4,54.4,29.91,North,351,0.0,0.0,61,0.00,,,0.08,WeatherDisplay:10.37,2013-06-11 01:54:00,
2013-06-10 20:59:00,68.4,54.4,29.91,North,351,0.0,0.0,61,0.00,,,0.08,WeatherDisplay:10.37,2013-06-11 01:59:00,
2013-06-10 21:04:00,67.8,55.2,29.91,North,351,0.0,0.0,64,0.00,,,0.08,WeatherDisplay:10.37,2013-06-11 02:04:00,
2013-06-10 21:09:00,67.8,55.2,29.91,North,351,0.0,0.0,64,0.00,,,0.08,WeatherDisplay:10.37,2013-06-11 02:09:00,
2013-06-10 21:14:00,67.5,54.9,29.91,North,351,0.0,0.0,64,0.00,,,0.08,WeatherDisplay:10.37,2013-06-11 02:14:00,
2013-06-10 21:19:00,67.3,55.5,29.91,North,351,0.0,0.0,66,0.00,,,0.08,WeatherDisplay:10.37,2013-06-11 02:19:00,
2013-06-10 21:24:00,67.3,55.5,29.91,North,351,0.0,0.0,66,0.00,,,0.08,WeatherDisplay:10.37,2013-06-11 02:24:00,
2013-06-10 21:29:00,67.3,55.5,29.91,North,351,0.0,0.0,66,0.00,,,0.08,WeatherDisplay:10.37,2013-06-11 02:29:00,
2013-06-10 21:34:00,67.3,55.5,29.91,North,351,0.0,0.0,66,0.00,,,0.08,WeatherDisplay:10.37,2013-06-11 02:34:00,
2013-06-10 21:39:00,67.3,55.5,29.91,North,351,0.0,0.0,66,0.00,,,0.08,WeatherDisplay:10.37,2013-06-11 02:39:00,
2013-06-10 21:44:00,67.3,55.5,29.91,North,351,0.0,0.0,66,0.00,,,0.08,WeatherDisplay:10.37,2013-06-11 02:44:00,
2013-06-10 21:49:00,66.2,55.3,29.91,North,351,0.0,0.0,68,0.00,,,0.08,WeatherDisplay:10.37,2013-06-11 02:49:00,
2013-06-10 21:54:00,66.2,55.3,29.91,North,351,0.0,0.0,68,0.00,,,0.08,WeatherDisplay:10.37,2013-06-11 02:54:00,
2013-06-10 21:59:00,66.2,55.3,29.91,North,351,0.0,0.0,68,0.00,,,0.08,WeatherDisplay:10.37,2013-06-11 02:59:00,
2013-06-10 22:04:00,66.2,55.3,29.91,North,351,0.0,0.0,68,0.00,,,0.08,WeatherDisplay:10.37,2013-06-11 03:04:00,
2013-06-10 22:09:00,66.2,55.3,29.91,North,351,0.0,0.0,68,0.00,,,0.08,WeatherDisplay:10.37,2013-06-11 03:09:00,
2013-06-10 22:14:00,66.2,55.3,29.91,North,351,0.0,0.0,68,0.00,,,0.08,WeatherDisplay:10.37,2013-06-11 03:14:00,
2013-06-10 22:19:00,66.2,55.3,29.91,North,351,0.0,0.0,68,0.00,,,0.08,WeatherDisplay:10.37,2013-06-11 03:19:00,
2013-06-10 22:24:00,66.2,55.3,29.91,North,351,0.0,0.0,68,0.00,,,0.08,WeatherDisplay:10.37,2013-06-11 03:24:00,
2013-06-10 22:29:00,66.2,55.3,29.91,North,351,0.0,0.0,68,0.00,,,0.08,WeatherDisplay:10.37,2013-06-11 03:29:00,
2013-06-10 22:34:00,66.2,55.3,29.91,North,351,0.0,0.0,68,0.00,,,0.08,WeatherDisplay:10.37,2013-06-11 03:34:00,
2013-06-10 22:39:00,66.2,55.3,29.91,North,351,0.0,0.0,68,0.00,,,0.08,WeatherDisplay:10.37,2013-06-11 03:39:00,
2013-06-10 22:44:00,64.8,56.3,29.91,North,351,0.0,0.0,74,0.00,,,0.08,WeatherDisplay:10.37,2013-06-11 03:44:00,
2013-06-10 22:49:00,64.4,56.7,29.91,North,351,0.0,0.0,76,0.00,,,0.08,WeatherDisplay:10.37,2013-06-11 03:49:00,
2013-06-10 22:54:00,64.4,56.7,29.91,North,351,0.0,0.0,76,0.00,,,0.08,WeatherDisplay:10.37,2013-06-11 03:54:00,
2013-06-10 22:59:00,64.2,56.5,29.91,North,351,0.0,0.0,76,0.00,,,0.08,WeatherDisplay:10.37,2013-06-11 03:59:00,
2013-06-10 23:01:00,64.2,56.5,29.91,North,351,0.0,0.0,76,0.00,,,0.08,WeatherDisplay:10.37,2013-06-11 04:01:00,
2013-06-10 23:03:00,64.2,56.5,29.91,North,351,0.0,0.0,76,0.00,,,0.08,WeatherDisplay:10.37,2013-06-11 04:03:00,
2013-06-10 23:08:00,64.2,56.5,29.91,North,351,0.0,0.0,76,0.00,,,0.08,WeatherDisplay:10.37,2013-06-11 04:08:00,
2013-06-10 23:13:00,63.9,56.5,29.91,North,351,0.0,0.0,77,0.00,,,0.08,WeatherDisplay:10.37,2013-06-11 04:13:00,
2013-06-10 23:18:00,63.9,56.5,29.91,North,351,0.0,0.0,77,0.00,,,0.08,WeatherDisplay:10.37,2013-06-11 04:18:00,
2013-06-10 23:23:00,63.9,56.5,29.91,North,351,0.0,0.0,77,0.00,,,0.08,WeatherDisplay:10.37,2013-06-11 04:23:00,
2013-06-10 23:28:00,63.7,56.3,29.91,North,351,0.0,0.0,77,0.00,,,0.08,WeatherDisplay:10.37,2013-06-11 04:28:00,
2013-06-10 23:33:00,63.7,56.3,29.91,North,351,0.0,0.0,77,0.00,,,0.08,WeatherDisplay:10.37,2013-06-11 04:33:00,
2013-06-10 23:38:00,63.5,56.2,29.91,North,351,0.0,0.0,77,0.00,,,0.08,WeatherDisplay:10.37,2013-06-11 04:38:00,
2013-06-10 23:43:00,63.3,56.0,29.91,North,351,0.0,0.0,77,0.00,,,0.08,WeatherDisplay:10.37,2013-06-11 04:43:00,
2013-06-10 23:48:00,63.3,56.0,29.91,North,351,0.0,0.0,77,0.00,,,0.08,WeatherDisplay:10.37,2013-06-11 04:48:00,
2013-06-10 23:53:00,63.3,56.3,29.91,North,351,0.0,0.0,78,0.00,,,0.08,WeatherDisplay:10.37,2013-06-11 04:53:00,
2013-06-10 23:58:00,63.1,56.5,29.91,North,351,0.0,0.0,79,0.00,,,0.08,WeatherDisplay:10.37,2013-06-11 04:58:00,